Starlink 31540

operational
NORAD ID: 59542 Int'l Des: 2024-074 Owner: SPXS Country: US Constellation: starlink
LEOCIRCULAR

Starlink 31540について

説明を読み込み中...

リアルタイム位置

3D地球を読み込み中...

次回通過

高度履歴

Altitude vs Time

uPlot chart will show altitude changes over time

軌道要素

1 59542U 24074J 25303.48492389 .00000969 00000-0 44723-4 0 9990
2 59542 43.0057 358.6417 0001008 282.1905 77.8834 15.27577133 86109
Epoch: Oct 30, 2025 • Age: 33 hours

現在のステータス

高度 492.2 km
速度 7.62 km/s
衛星直下点 -34.47°S, 41.75°W
打ち上げ日 Apr 18, 2024
運用期間 1.5 years
タイプ internet

技術仕様

分類 Payload
質量 730.00 kg
乾燥質量 700.00 kg
総質量 730.00 kg
長さ 0.30 m
直径 4.10 m
スパン 29.00 m
形状 Box + pan
製造者 SPXS
バスタイプ Starlink V2M
フェーズステータス In Orbit
所有者/国 SPXS/US

大規模コンステレーション

Loading constellations...